Tracking 27122 objects as of 25-Mar-2023
HD Live streaming from Space Station
objects crossing your sky now

STARLINK-5109

Track STARLINK-5109 now!
10-day predictions
STARLINK-5109 is classified as:


NORAD ID: 54002
Int'l Code: 2022-125AQ
Perigee: 546.1 km
Apogee: 547.4 km
Inclination: 53.2 °
Period: 95.4 minutes
Semi major axis: 6917 km
RCS: Unknown
Launch date: October 5, 2022
Source: United States (US)
Launch site: AIR FORCE WESTERN TEST RANGE (AFWTR)
Your satellite tracking list
Your tracking list is empty




NASA's NSSDC Master Catalog

Two Line Element Set (TLE):
1 54002U 22125AQ  23084.09389004  .00037926  00000-0  23855-2 0  9995
2 54002  53.2186  14.8422 0000973  85.9879 274.1224 15.08882198 26521
Source of the keplerian elements: AFSPC